Alexandria Esle, LA

12:37 AM CDT on August 21, 2019 (GMT -0500)
Alexandria Esler Regional

Weather History for KESF - July, 2019

Change the Weather History Date:

Monday, July 22, 2019

  Actual Average Record
Temperature  
Mean Temperature 79 °F -  
Max Temperature 91 °F 90 °F 100 °F (2018)
Min Temperature 69 °F 70 °F 65 °F (1970)
Cooling Degree Days 14    
Growing Degree Days 29 (Base 50)    
Moisture  
Dew Point 73 °F    
Average Humidity 91    
Maximum Humidity 100    
Minimum Humidity 63    
Precipitation  
Precipitation 0.50 in - - ()
Sea Level Pressure  
Sea Level Pressure 29.97 in    
Wind  
Wind Speed 1 mph (WSW)    
Max Wind Speed 16 mph    
Max Gust Speed 22 mph    
Visibility 6 miles    
Events Fog , Rain , Thunderstorm    
Averages and records for this station are not official NWS values.
T = Trace of Precipitation, MM = Missing Value Source: NWS Daily Summary

Daily Weather History Graph

Daily Weather History Graph

Search for Another Location

Airport or City:

Astronomy

Jul. 22, 2019 Rise Set
Actual Time 6:19 AM CDT 8:11 PM CDT
Civil Twilight 5:52 AM CDT 8:38 PM CDT
Nautical Twilight 5:19 AM CDT 9:11 PM CDT
Astronomical Twilight 4:44 AM CDT 9:45 PM CDT
Moon 11:52 PM CDT (7/22) 11:19 AM CDT (7/22)
Length of Visible Light 14h 46m
Length of Day
13h 52m
Waning Gibbous, 72% of the Moon is Illuminated
Jul 22
Waning Gibbous
Jul 24
Last Quarter
Jul 31
New
Aug 7
First Quarter
Aug 15
Full

Hourly Weather History & Observations

Time (CDT) Temp. Heat Index Dew Point Humidity Pressure Visibility Wind Dir Wind Speed Gust Speed Precip Events Conditions
12:19 AM 73.0 °F - 72.0 °F 96% 29.98 in 8.0 mi Calm Calm - N/A   Mostly Cloudy
12:53 AM 73.0 °F - 72.0 °F 96% 29.98 in 8.0 mi Calm Calm - N/A   Mostly Cloudy
1:04 AM 73.0 °F - 72.0 °F 96% 29.99 in 8.0 mi Calm Calm - N/A   Mostly Cloudy
1:41 AM 73.0 °F - 72.0 °F 96% 29.98 in 9.0 mi Calm Calm - N/A   Scattered Clouds
1:53 AM 73.0 °F - 72.0 °F 96% 29.98 in 9.0 mi Calm Calm - N/A   Clear
2:53 AM 71.1 °F - 71.1 °F 100% 29.97 in 4.0 mi Calm Calm - N/A   Clear
3:02 AM 72.0 °F - 71.1 °F 97% 29.98 in 1.8 mi Calm Calm - N/A   Clear
3:16 AM 71.1 °F - 70.0 °F 96% 29.97 in 0.8 mi Calm Calm - N/A   Mist
3:27 AM 71.1 °F - 70.0 °F 96% 29.97 in 1.2 mi Calm Calm - N/A   Clear
3:35 AM 71.1 °F - 70.0 °F 96% 29.97 in 4.0 mi Calm Calm - N/A   Clear
3:48 AM 69.8 °F - 69.8 °F 100% 29.97 in 5.0 mi Calm Calm - N/A   Partly Cloudy
3:53 AM 70.0 °F - 70.0 °F 100% 29.96 in 5.0 mi Calm Calm - N/A   Scattered Clouds
4:00 AM 71.1 °F - 70.0 °F 96% 29.97 in 1.5 mi Calm Calm - N/A   Partly Cloudy
4:03 AM 71.1 °F - 70.0 °F 96% 29.97 in 0.8 mi Calm Calm - N/A   Mist
4:15 AM 71.1 °F - 71.1 °F 100% 29.97 in 2.5 mi Calm Calm - N/A   Mostly Cloudy
4:23 AM 72.0 °F - 71.1 °F 97% 29.97 in 6.0 mi Calm Calm - N/A   Mostly Cloudy
4:38 AM 72.0 °F - 72.0 °F 100% 29.98 in 1.8 mi Calm Calm - N/A   Overcast
4:53 AM 72.0 °F - 72.0 °F 100% 29.97 in 0.5 mi Calm Calm - N/A Fog Fog
5:08 AM 72.0 °F - 72.0 °F 100% 29.98 in 2.0 mi Calm Calm - N/A   Overcast
5:16 AM 72.0 °F - 72.0 °F 100% 29.98 in 3.0 mi Calm Calm - N/A   Mostly Cloudy
5:26 AM 73.0 °F - 72.0 °F 96% 29.98 in 4.0 mi Calm Calm - N/A   Overcast
5:48 AM 71.6 °F - 71.6 °F 100% 29.99 in 5.0 mi Calm Calm - N/A   Scattered Clouds
5:53 AM 72.0 °F - 72.0 °F 100% 29.99 in 5.0 mi Calm Calm - N/A   Partly Cloudy
6:01 AM 72.0 °F - 72.0 °F 100% 29.99 in 4.0 mi Calm Calm - N/A   Partly Cloudy
6:09 AM 72.0 °F - 71.1 °F 97% 29.99 in 1.8 mi Calm Calm - N/A   Scattered Clouds
6:16 AM 72.0 °F - 71.1 °F 97% 29.99 in 1.8 mi Calm Calm - N/A   Mostly Cloudy
6:23 AM 72.0 °F - 71.1 °F 97% 29.99 in 3.0 mi Calm Calm - N/A   Mostly Cloudy
6:30 AM 72.0 °F - 72.0 °F 100% 29.99 in 3.0 mi Calm Calm - N/A   Overcast
6:50 AM 71.6 °F - 71.6 °F 100% 30.00 in 2.5 mi Calm Calm - N/A   Overcast
6:53 AM 73.0 °F - 72.0 °F 96% 29.99 in 3.0 mi Calm Calm - N/A   Overcast
7:12 AM 73.0 °F - 72.0 °F 96% 30.00 in 2.5 mi Calm Calm - N/A   Overcast
7:35 AM 73.0 °F - 72.0 °F 96% 30.01 in 4.0 mi Calm Calm - N/A   Overcast
7:53 AM 73.0 °F - 73.0 °F 100% 30.00 in 4.0 mi Calm Calm - N/A   Mostly Cloudy
8:10 AM 73.9 °F - 73.0 °F 97% 30.01 in 6.0 mi Calm Calm - N/A   Mostly Cloudy
8:53 AM 77.0 °F - 73.9 °F 90% 30.01 in 9.0 mi Calm Calm - N/A   Overcast
9:09 AM 78.1 °F - 73.9 °F 87% 30.01 in 10.0 mi South 3.5 mph - N/A   Overcast
9:53 AM 81.0 °F 86.7 °F 75.0 °F 82% 30.01 in 10.0 mi WNW 4.6 mph - N/A   Mostly Cloudy
10:29 AM 84.0 °F 92.6 °F 75.9 °F 76% 30.01 in 10.0 mi West 3.5 mph - N/A   Overcast
10:53 AM 84.0 °F 91.9 °F 75.0 °F 74% 30.00 in 10.0 mi WSW 6.9 mph - N/A   Mostly Cloudy
11:15 AM 84.9 °F 94.1 °F 75.9 °F 74% 30.00 in 10.0 mi West 5.8 mph - N/A   Partly Cloudy
11:29 AM 84.0 °F 92.6 °F 75.9 °F 76% 30.00 in 10.0 mi West 5.8 mph - N/A   Mostly Cloudy
11:53 AM 84.9 °F 94.1 °F 75.9 °F 74% 30.00 in 10.0 mi West 6.9 mph - N/A   Mostly Cloudy
12:05 PM 89.1 °F 101.4 °F 77.0 °F 67% 30.00 in 10.0 mi WSW 8.1 mph - N/A   Scattered Clouds
12:53 PM 87.1 °F 97.3 °F 75.9 °F 69% 29.97 in 10.0 mi WSW 3.5 mph - N/A   Scattered Clouds
1:53 PM 89.1 °F 99.1 °F 75.0 °F 63% 29.95 in 10.0 mi Variable 4.6 mph - N/A   Mostly Cloudy
2:06 PM 82.0 °F 89.4 °F 75.9 °F 82% 29.97 in 1.5 mi NNE 11.5 mph - 0.17 in Rain , Thunderstorm Heavy Rain
2:09 PM 79.0 °F - 75.9 °F 90% 29.98 in 0.5 mi WSW 10.4 mph 17.3 mph 0.44 in Fog , Rain , Thunderstorm Heavy Thunderstorms and Rain
2:16 PM 79.0 °F - 73.9 °F 84% 29.96 in 0.5 mi SSW 9.2 mph 17.3 mph 0.50 in Rain , Thunderstorm Light Thunderstorms and Rain
2:28 PM 78.1 °F - 73.9 °F 87% 29.95 in 10.0 mi Variable 4.6 mph - 0.50 in Thunderstorm Thunderstorm
2:53 PM 78.1 °F - 73.0 °F 84% 29.94 in 10.0 mi Calm Calm - 0.50 in Thunderstorm Thunderstorm
3:08 PM 79.0 °F - 73.9 °F 84% 29.94 in 10.0 mi Calm Calm - N/A Thunderstorm Partly Cloudy
3:19 PM 79.0 °F - 75.0 °F 88% 29.94 in 10.0 mi ESE 3.5 mph - N/A   Partly Cloudy
3:53 PM 84.9 °F 95.3 °F 77.0 °F 77% 29.92 in 10.0 mi Variable 4.6 mph - N/A   Clear
4:18 PM 87.1 °F 98.8 °F 77.0 °F 72% 29.92 in 10.0 mi South 9.2 mph - N/A Thunderstorm Clear
4:53 PM 81.0 °F 87.3 °F 75.9 °F 85% 29.92 in 10.0 mi SSW 4.6 mph - N/A Thunderstorm Overcast
5:09 PM 81.0 °F 87.3 °F 75.9 °F 85% 29.95 in 10.0 mi West 16.1 mph 21.9 mph N/A Thunderstorm Thunderstorm
5:53 PM 75.9 °F - 72.0 °F 87% 29.92 in 10.0 mi South 5.8 mph - 0.00 in Rain , Thunderstorm Light Rain
6:02 PM 75.0 °F - 72.0 °F 90% 29.91 in 10.0 mi NW 3.5 mph - 0.00 in Rain Light Rain
7:53 PM 77.0 °F - 73.0 °F 88% 29.93 in 10.0 mi WSW 3.5 mph - N/A   Partly Cloudy
8:53 PM 75.0 °F - 73.9 °F 96% 29.95 in 8.0 mi Calm Calm - N/A   Clear
9:06 PM 75.9 °F - 73.9 °F 94% 29.97 in 9.0 mi NNE 8.1 mph - N/A   Scattered Clouds
9:15 PM 77.0 °F - 73.9 °F 90% 29.98 in 10.0 mi NE 6.9 mph - N/A   Mostly Cloudy
9:38 PM 77.0 °F - 73.0 °F 88% 29.98 in 10.0 mi Calm Calm - N/A Thunderstorm Mostly Cloudy
9:53 PM 75.9 °F - 73.0 °F 91% 29.96 in 10.0 mi ESE 3.5 mph - N/A Thunderstorm Scattered Clouds
10:06 PM 75.0 °F - 73.9 °F 96% 29.96 in 10.0 mi Calm Calm - N/A   Partly Cloudy
10:53 PM 75.0 °F - 73.0 °F 94% 29.95 in 9.0 mi NW 4.6 mph - N/A   Clear
11:53 PM 75.0 °F - 73.0 °F 94% 29.95 in 10.0 mi Calm Calm - N/A   Scattered Clouds